Location: Ferma
(41.9500°N, 44.5167°E)
Time: 10:58:59
(UTC+00:00)

Cosmos 1269 Rocket - Pass Details

Date: 01 June 2022
Orbit: 773 x 778 km, 74.1° (Epoch: 01 July)

Event Time Altitude Azimuth Distance (km) Brightness Sun altitude
Rises 22:26:15 0° 328° (NNW) 3,257 7.8 -22.9°
Reaches altitude 10° 22:28:56 10° 317° (NW) 2,325 6.8 -22.7°
Enters shadow 22:33:00 27° 267° (W) 1,456 5.2 -22.4°
